カタログに戻る

COSMOS 1680

運用中ナビゲーションLEO
NORAD 16011·PAYLOAD·🇷🇺 Russia

打ち上げ Sep 4, 1985 から Plesetsk Cosmodrome

Loading…

次のパス (今後24時間)

TLE

最新Source: Space-Track

元期: Sep 14, 2026, 21:34 UTC

1 16011U 85079A   26257.89887807  .00000089  00000-0  41185-4 0  9995
2 16011  74.0541 160.7838 0015775 309.4400  50.5355 14.34179574144669

AllMySatでCOSMOS 1680をリアルタイム追跡

Download on the App Store